Weather History for Baton Rouge, LA

Change the Weather History Date:

Thursday, January 24, 2013

  Actual Average Record
Temperature  
Mean Temperature 61 °F 52 °F  
Max Temperature 74 °F 63 °F 82 °F (1909)
Min Temperature 48 °F 41 °F 12 °F (1963)
Degree Days  
Heating Degree Days 4 13  
Month to date heating degree days 314 335  
Since 1 July heating degree days 891 951  
Cooling Degree Days 0 0  
Month to date cooling degree days 11 3  
Year to date cooling degree days 11 3  
Growing Degree Days 10 (Base 50)    
Moisture  
Dew Point 53 °F    
Average Humidity 77    
Maximum Humidity 96    
Minimum Humidity 57    
Precipitation  
Precipitation 0.00 in 0.19 in 2.47 in (1990)
Month to date precipitation 13.82 4.40  
Year to date precipitation 13.82 4.40  
Snow  
Snow 0.00 in - - ()
Month to date snowfall 0.0  
Since 1 July snowfall 0.0  
Snow Depth 0.00 in    
Sea Level Pressure  
Sea Level Pressure 30.27 in    
Wind  
Wind Speed 7 mph (SSW)    
Max Wind Speed 15 mph    
Max Gust Speed 18 mph    
Visibility 10 miles    
Events      
T = Trace of Precipitation, MM = Missing Value Source: NWS Daily Summary

Daily Weather History Graph

Daily Weather History Graph

Search for Another Location

Airport:

Trip Planner

Search our weather history database for the weather conditions in past years. The results will help you decide how hot, cold, wet, or windy it might be!

Date:

Astronomy

Jan. 24, 2013 Rise Set
Actual Time 6:59 AM CST 5:34 PM CST
Civil Twilight 6:34 AM CST 5:59 PM CST
Nautical Twilight 6:04 AM CST 6:28 PM CST
Astronomical Twilight 5:36 AM CST 6:57 PM CST
Moon 3:38 PM CST (1/24) 4:54 AM CST (1/24)
Length of Visible Light 11h 25m
Length of Day
10h 34m
Waxing Gibbous, 94% of the Moon is Illuminated
Jan 24
Waxing Gibbous
Jan 26
Full
Feb 3
Last Quarter
Feb 10
New
Feb 17
First Quarter

Hourly Weather History & Observations

Time (CST) Temp. Dew Point Humidity Pressure Visibility Wind Dir Wind Speed Gust Speed Precip Events Conditions
12:53 AM 54.0 °F 48.9 °F 83% 30.29 in 10.0 mi South 4.6 mph - N/A   Clear
1:53 AM 53.1 °F 48.9 °F 86% 30.28 in 10.0 mi South 5.8 mph - N/A   Clear
2:53 AM 53.1 °F 50.0 °F 89% 30.28 in 10.0 mi South 5.8 mph - N/A   Clear
3:53 AM 52.0 °F 48.9 °F 89% 30.28 in 10.0 mi South 3.5 mph - N/A   Clear
4:53 AM 48.0 °F 46.9 °F 96% 30.29 in 8.0 mi Calm Calm - N/A   Clear
5:53 AM 50.0 °F 48.9 °F 96% 30.30 in 9.0 mi Calm Calm - N/A   Overcast
6:53 AM 52.0 °F 50.0 °F 93% 30.32 in 10.0 mi Calm Calm - N/A   Overcast
7:53 AM 54.0 °F 52.0 °F 93% 30.32 in 7.0 mi South 4.6 mph - N/A   Overcast
8:53 AM 60.1 °F 54.0 °F 80% 30.33 in 10.0 mi South 3.5 mph - N/A   Mostly Cloudy
9:53 AM 66.9 °F 55.0 °F 66% 30.33 in 10.0 mi SSW 9.2 mph - N/A   Clear
10:53 AM 68.0 °F 55.9 °F 65% 30.34 in 10.0 mi SW 8.1 mph - N/A   Mostly Cloudy
11:53 AM 71.1 °F 55.9 °F 59% 30.31 in 10.0 mi SW 5.8 mph - N/A   Mostly Cloudy
12:53 PM 72.0 °F 55.9 °F 57% 30.27 in 10.0 mi West 5.8 mph - N/A   Mostly Cloudy
1:53 PM 72.0 °F 55.9 °F 57% 30.24 in 10.0 mi WSW 6.9 mph - N/A   Mostly Cloudy
2:53 PM 71.1 °F 55.0 °F 57% 30.22 in 10.0 mi South 10.4 mph - N/A   Mostly Cloudy
3:53 PM 70.0 °F 55.0 °F 59% 30.22 in 10.0 mi South 8.1 mph - N/A   Overcast
4:53 PM 70.0 °F 55.0 °F 59% 30.22 in 10.0 mi South 10.4 mph - N/A   Mostly Cloudy
5:53 PM 66.9 °F 55.9 °F 68% 30.23 in 10.0 mi SW 11.5 mph - N/A   Mostly Cloudy
6:53 PM 66.0 °F 55.9 °F 70% 30.25 in 10.0 mi SW 8.1 mph - N/A   Mostly Cloudy
7:53 PM 64.9 °F 55.9 °F 73% 30.26 in 10.0 mi SW 9.2 mph - N/A   Overcast
8:53 PM 63.0 °F 55.0 °F 75% 30.25 in 10.0 mi SSW 11.5 mph - N/A   Scattered Clouds
9:53 PM 61.0 °F 55.0 °F 81% 30.25 in 10.0 mi South 8.1 mph - N/A   Clear
10:53 PM 60.1 °F 54.0 °F 80% 30.25 in 10.0 mi South 8.1 mph - N/A   Clear
11:53 PM 57.9 °F 54.0 °F 87% 30.24 in 10.0 mi South 6.9 mph - N/A   Clear